TimeEST,TemperatureF,Dew PointF,Humidity,Sea Level PressureIn,VisibilityMPH,Wind Direction,Wind SpeedMPH,Gust SpeedMPH,PrecipitationIn,Events,Conditions,WindDirDegrees,DateUTC
12:52 AM,30.9,24.1,76,30.27,10.0,Calm,Calm,-,N/A,,Partly Cloudy,0,2013-12-12 05:52:00
1:52 AM,34.0,19.0,54,30.29,10.0,WNW,8.1,-,N/A,,Mostly Cloudy,300,2013-12-12 06:52:00
2:52 AM,32.0,19.9,61,30.32,10.0,NNW,8.1,-,N/A,,Mostly Cloudy,330,2013-12-12 07:52:00
3:52 AM,32.0,19.0,59,30.33,10.0,NNW,13.8,-,N/A,,Mostly Cloudy,330,2013-12-12 08:52:00
4:52 AM,30.9,19.9,64,30.34,10.0,NNW,12.7,-,N/A,,Scattered Clouds,340,2013-12-12 09:52:00
5:52 AM,30.0,18.0,61,30.36,10.0,North,16.1,24.2,N/A,,Clear,350,2013-12-12 10:52:00
6:52 AM,28.9,15.1,56,30.40,10.0,NNW,15.0,-,N/A,,Partly Cloudy,340,2013-12-12 11:52:00
7:52 AM,28.0,10.9,49,30.43,10.0,NNW,16.1,-,N/A,,Mostly Cloudy,330,2013-12-12 12:52:00
8:52 AM,28.0,10.9,49,30.44,10.0,NNW,16.1,-,N/A,,Mostly Cloudy,340,2013-12-12 13:52:00
9:52 AM,28.0,10.9,49,30.46,10.0,NNW,16.1,24.2,N/A,,Mostly Cloudy,340,2013-12-12 14:52:00
10:52 AM,30.0,10.9,45,30.44,10.0,NNW,11.5,-,N/A,,Scattered Clouds,330,2013-12-12 15:52:00
11:52 AM,30.9,10.0,42,30.41,10.0,NW,9.2,20.7,N/A,,Partly Cloudy,310,2013-12-12 16:52:00
12:52 PM,32.0,10.0,40,30.38,10.0,WNW,5.8,-,N/A,,Partly Cloudy,300,2013-12-12 17:52:00
1:52 PM,33.1,9.0,37,30.36,10.0,NW,10.4,17.3,N/A,,Partly Cloudy,320,2013-12-12 18:52:00
2:52 PM,33.1,9.0,37,30.35,10.0,WNW,9.2,-,N/A,,Scattered Clouds,300,2013-12-12 19:52:00
3:52 PM,33.1,8.1,35,30.35,10.0,WNW,6.9,-,N/A,,Partly Cloudy,300,2013-12-12 20:52:00
4:52 PM,32.0,8.1,37,30.35,10.0,Variable,5.8,-,N/A,,Partly Cloudy,0,2013-12-12 21:52:00
5:52 PM,30.9,9.0,40,30.36,10.0,NW,4.6,-,N/A,,Partly Cloudy,320,2013-12-12 22:52:00
6:52 PM,30.0,7.0,38,30.36,10.0,NNW,5.8,-,N/A,,Clear,330,2013-12-12 23:52:00
7:52 PM,30.0,5.0,35,30.37,10.0,NW,4.6,-,N/A,,Partly Cloudy,310,2013-12-13 00:52:00
8:52 PM,28.0,9.0,45,30.34,10.0,SSW,4.6,-,N/A,,Partly Cloudy,200,2013-12-13 01:52:00
9:52 PM,28.0,12.0,51,30.31,10.0,SSW,4.6,-,N/A,,Partly Cloudy,210,2013-12-13 02:52:00
10:52 PM,28.9,12.9,51,30.29,10.0,SSW,10.4,-,N/A,,Clear,210,2013-12-13 03:52:00
11:52 PM,27.0,14.0,58,30.28,10.0,SSW,8.1,-,N/A,,Partly Cloudy,210,2013-12-13 04:52:00